Ketchikan, AK

3:52 PM AKST on December 09, 2018 (GMT -0900)
Ketchikan International

Weather History for PAKT - October, 2018

Change the Weather History Date:

Saturday, October 20, 2018

  Actual Average Record
Temperature  
Mean Temperature 52 °F -  
Max Temperature 55 °F 50 °F 60 °F (1953)
Min Temperature 48 °F 39 °F 28 °F (2004)
Degree Days  
Heating Degree Days 14    
Growing Degree Days 2 (Base 50)    
Moisture  
Dew Point 47 °F    
Average Humidity 89    
Maximum Humidity 96    
Minimum Humidity 72    
Precipitation  
Precipitation 0.09 in - - ()
Sea Level Pressure  
Sea Level Pressure 30.22 in    
Wind  
Wind Speed 8 mph (SE)    
Max Wind Speed 14 mph    
Max Gust Speed -    
Visibility 9 miles    
Events Rain    
Averages and records for this station are not official NWS values.
T = Trace of Precipitation, MM = Missing Value Source: NWS Daily Summary

Daily Weather History Graph

Daily Weather History Graph

Search for Another Location

Airport or City:

Astronomy

Oct. 20, 2018 Rise Set
Actual Time 7:27 AM AKDT 5:34 PM AKDT
Civil Twilight 6:49 AM AKDT 6:12 PM AKDT
Nautical Twilight 6:07 AM AKDT 6:54 PM AKDT
Astronomical Twilight 5:25 AM AKDT 7:36 PM AKDT
Moon 4:53 PM AKDT (10/20) 2:21 AM AKDT (10/20)
Length of Visible Light 11h 22m
Length of Day
10h 07m
Waxing Gibbous, 85% of the Moon is Illuminated
Oct 20
Waxing Gibbous
Oct 24
Full
Oct 31
Last Quarter
Nov 7
New
Nov 15
First Quarter

Hourly Weather History & Observations

Time (AKDT) Temp. Dew Point Humidity Pressure Visibility Wind Dir Wind Speed Gust Speed Precip Events Conditions
12:14 AM 50.0 °F 46.9 °F 89% 30.15 in 10.0 mi ESE 13.8 mph - N/A   Mostly Cloudy
12:53 AM 50.0 °F 46.0 °F 86% 30.15 in 10.0 mi ESE 12.7 mph - N/A   Partly Cloudy
1:53 AM 48.9 °F 46.0 °F 90% 30.17 in 10.0 mi SE 5.8 mph - 0.00 in Rain Light Rain
2:04 AM 48.9 °F 46.9 °F 93% 30.17 in 2.5 mi Variable 3.5 mph - 0.04 in Rain Rain
2:19 AM 50.0 °F 46.9 °F 89% 30.17 in 9.0 mi ESE 6.9 mph - 0.06 in Rain Light Rain
2:29 AM 50.0 °F 46.9 °F 89% 30.17 in 10.0 mi ESE 8.1 mph - 0.06 in   Overcast
2:53 AM 50.0 °F 46.9 °F 89% 30.17 in 10.0 mi SE 10.4 mph - 0.06 in   Mostly Cloudy
3:41 AM 48.9 °F 46.9 °F 93% 30.20 in 5.0 mi South 4.6 mph - 0.03 in Rain Rain
3:53 AM 50.0 °F 46.9 °F 89% 30.21 in 10.0 mi SSE 4.6 mph - 0.03 in   Overcast
4:26 AM 48.9 °F 46.9 °F 93% 30.21 in 10.0 mi SSE 4.6 mph - N/A   Mostly Cloudy
4:53 AM 48.9 °F 46.9 °F 93% 30.22 in 10.0 mi SSE 5.8 mph - 0.00 in Rain Light Rain
5:02 AM 48.9 °F 46.0 °F 90% 30.22 in 10.0 mi SE 4.6 mph - 0.00 in   Mostly Cloudy
5:53 AM 48.0 °F 45.0 °F 89% 30.23 in 10.0 mi South 5.8 mph - 0.00 in   Mostly Cloudy
6:01 AM 48.2 °F 44.6 °F 87% 30.23 in 10.0 mi South 5.8 mph - N/A   Mostly Cloudy
6:53 AM 48.2 °F 46.4 °F 93% 30.24 in 10.0 mi SSE 4.6 mph - N/A Rain Light Rain
7:53 AM 48.2 °F 46.4 °F 93% 30.25 in 10.0 mi South 4.6 mph - N/A   Mostly Cloudy
8:53 AM 50.0 °F 46.4 °F 87% 30.26 in 10.0 mi South 4.6 mph - N/A   Overcast
9:53 AM 51.8 °F 48.2 °F 88% 30.27 in 10.0 mi SSE 4.6 mph - N/A   Overcast
10:53 AM 51.8 °F 48.2 °F 88% 30.28 in 10.0 mi SE 6.9 mph - N/A   Mostly Cloudy
11:53 AM 51.8 °F 46.4 °F 82% 30.28 in 10.0 mi SE 8.1 mph - N/A   Mostly Cloudy
12:53 PM 53.1 °F 48.0 °F 83% 30.27 in 10.0 mi ESE 8.1 mph - N/A   Mostly Cloudy
1:53 PM 55.4 °F 46.4 °F 72% 30.26 in 10.0 mi ESE 10.4 mph - N/A   Mostly Cloudy
2:53 PM 53.6 °F 46.4 °F 77% 30.25 in 10.0 mi SSE 8.1 mph - N/A   Overcast
3:53 PM 53.6 °F 48.2 °F 82% 30.25 in 10.0 mi SE 6.9 mph - N/A   Mostly Cloudy
4:53 PM 51.8 °F 48.2 °F 88% 30.24 in 9.0 mi SSE 6.9 mph - N/A Rain Light Rain
5:53 PM 51.8 °F 48.2 °F 88% 30.24 in 10.0 mi SE 6.9 mph - N/A   Mostly Cloudy
6:53 PM 50.0 °F 48.2 °F 94% 30.23 in 10.0 mi SSE 5.8 mph - N/A   Mostly Cloudy
7:53 PM 50.0 °F 48.2 °F 94% 30.24 in 10.0 mi SSE 5.8 mph - N/A   Overcast
8:53 PM 50.0 °F 46.4 °F 87% 30.24 in 10.0 mi South 5.8 mph - N/A   Overcast
9:53 PM 50.0 °F 46.9 °F 89% 30.24 in 10.0 mi SE 5.8 mph - N/A   Overcast
10:53 PM 48.9 °F 46.9 °F 93% 30.22 in 10.0 mi SSE 4.6 mph - N/A   Overcast
11:29 PM 48.9 °F 46.9 °F 93% 30.21 in 9.0 mi ESE 5.8 mph - N/A   Overcast
11:53 PM 48.0 °F 46.9 °F 96% 30.22 in 3.0 mi East 6.9 mph - N/A   Overcast